Regional Weather Roundup
Issued by NWS Upton, NY

Current Version | Previous Version | Graphics & Text | Print | Product List | Glossary Off
Versions: 1 2 3 4 5 6 7 8 9 10 11 12 13 14 15 16 17 18 19 20 21 22 23 24 25 26 27 28 29 30 31 32 33 34 35 36 37 38 39 40 41 42 43 44 45 46 47 48 49 50

000
ASUS41 KOKX 191905
RWROKX
REGIONAL WEATHER ROUNDUP
NATIONAL WEATHER SERVICE NEW YORK NY
300 PM EDT TUE AUG 19 2014

NOTE: "FAIR" INDICATES FEW OR NO CLOUDS BELOW 12,000 FEET WITH NO
SIGNIFICANT WEATHER AND/OR OBSTRUCTIONS TO VISIBILITY.

NYZ071-072-176-178-NJZ106-104-192000-
NEW YORK CITY METRO AREA


CITY           SKY/WX    TMP DP  RH WIND       PRES   REMARKS
CENTRAL PARK   PTSUNNY   79  59  50 CALM      29.92S
LAGUARDIA APRT MOSUNNY   79  60  52 NE8       29.89F
KENNEDY INTL   MOSUNNY   78  64  61 SE8       29.92S
NEWARK/LIBERTY PTSUNNY   80  63  55 S10       29.89S
BRNX BOT. GARD   N/A     75  57  53 NE2       29.91F
TETERBORO      MOSUNNY   81  55  40 E6        29.87F
$$

NYZ177-179-078>081-192000-
LONG ISLAND NEW YORK

CITY           SKY/WX    TMP DP  RH WIND       PRES   REMARKS
FARMINGDALE    PTSUNNY   75  65  70 SE13      29.91S
ISLIP          MOSUNNY   76  62  62 SE10G16   29.89F
SHIRLEY        SUNNY     75  62  64 SE10      29.92S
WESTHAMPTON    SUNNY     75  59  57 E8        29.93F
MONTAUK POINT    N/A     76  53  44 VRB3      29.94F
$$

NYZ052-065-067-192000-
HUDSON VALLEY

CITY           SKY/WX    TMP DP  RH WIND       PRES   REMARKS
WHITE PLAINS   MOSUNNY   78  57  48 E6        29.90F
NEWBURGH       SUNNY     77  54  44 CALM      29.92F
MONTGOMERY     SUNNY     81  53  37 SE7       29.89F
POUGHKEEPSIE   SUNNY     79  54  41 CALM      29.89F
ALBANY         MOSUNNY   77  49  37 NE5       29.91F
$$

NJZ001-105-106-008-010-013-015-019>022-104-192000-
NEW JERSEY

CITY           SKY/WX    TMP DP  RH WIND       PRES   REMARKS
NEWARK/LIBERTY PTSUNNY   80  63  55 S10       29.89S
TETERBORO      MOSUNNY   81  55  40 E6        29.87F
CALDWELL       SUNNY     83  52  34 CALM      29.89F
MORRISTOWN     MOSUNNY   82  54  36 CALM      29.89F
SOMERVILLE     MOSUNNY   84  56  38 CALM      29.86F
LINDEN         FAIR      84  65  52 SE9       29.91S
SUSSEX         SUNNY     84  54  35 CALM      29.90S
ANDOVER          N/A     82  54  37 NE5       29.90F
TRENTON        MOSUNNY   80  58  46 E3        29.87F
MILLVILLE      MOSUNNY   83  62  49 SE8       29.88F
ATLANTIC CITY  SUNNY     80  62  54 SE10      29.89F
WRIGHTSTOWN    PTSUNNY   79  65  63 SE10      29.86F
TOMS RIVER     CLOUDY    79  63  57 SE5       29.90S
BELMAR         PTSUNNY   75  64  69 E12       29.90F
$$

PAZ047>061-062-071-192000-
EASTERN PENNSYLVANIA

CITY           SKY/WX    TMP DP  RH WIND       PRES   REMARKS
PHILADELPHIA   MOSUNNY   85  64  49 E5        29.87F
ALLENTOWN      MOSUNNY   85  58  39 CALM      29.89F
SCRANTON       CLOUDY    81  59  47 W5        29.90S
$$

CTZ002-004>006-009-010-012-RIZ004-006-007-MAZ004-011-015-192000-
SOUTHERN NEW ENGLAND
 IN CT

CITY           SKY/WX    TMP DP  RH WIND       PRES   REMARKS
BRADLEY INTL   MOSUNNY   79  52  38 VRB3      29.90F
HARTFORD       SUNNY     78  50  37 NE5       29.90F
DANBURY        SUNNY     78  54  43 CALM      29.91F
WTRBRY/OXFORD  MOSUNNY   75  54  46 CALM      29.95S
BRIDGEPORT     SUNNY     75  58  55 E8        29.91F
MERIDEN        SUNNY     81  50  33 VRB6      29.90F
NEW HAVEN      MOSUNNY   78  51  38 S7        29.92F
CHESTER        FAIR      75  52  43 SE8       29.93S
GROTON         SUNNY     73  56  54 S12       29.91F
WILLIMANTIC    SUNNY     78  51  38 CALM      29.91F

 IN RI

CITY           SKY/WX    TMP DP  RH WIND       PRES   REMARKS
PROVIDENCE     MOSUNNY   79  51  37 VRB5      29.91F
BLOCK ISLAND   SUNNY     73  46  38 S9        29.93F
WESTERLY       SUNNY     74  53  48 S9        29.92F

 IN MA

CITY           SKY/WX    TMP DP  RH WIND       PRES   REMARKS
BOSTON         MOSUNNY   72  54  53 E9        29.91S
WORCESTER      SUNNY     73  49  42 N3        29.93F
WESTFIELD      SUNNY     77  54  44 SW6       29.90F
PROVINCETOWN   SUNNY     70  57  64 MISG      29.93S
NANTUCKET      SUNNY     69  58  67 VRB7      29.93S
$$

ANZ330-335-338-340-345-350-353-355-192000-
COASTAL MARINE OBSERVATIONS


STATION/POSITION TIME  SKY/WX   TEMP    WIND        PRES    VSBY  WAVE
                                AIR SEA DIR/SP/G                  HT/PER
                 (UTC)          (F)     (DEG/KT/KT) (MB)    (MI)  (FT/S)
NY HARB ENTRANCE NOT AVBL
4S FIRE IS       NOT AVBL
23SW MTP         1900            70 69              1012.9          2/ 8
HUDSON CANYON    1900            73 74  110/  6/  8 1012.3          2/ 9
EXECUTION ROCKS  1900            72 73   70/ 10/ 14   N/A
WESTERN LI SOUND NOT AVBL
CENTRAL LI SOUND 1900            71 73   90/  6/  8   N/A           1
EASTERN LI SOUND 1800            70 70  160/  8/ 10   N/A
ROBBINS REEF     1900            72     170/ 14/ 15   N/A
$$


>>>>>>>>>>>>>>>>>>>>>>>>>>>> KEY <<<<<<<<<<<<<<<<<<<<<<<<<<<
>                                                          <
>     SKY/WX - SKY CONDITION/PRESENT WEATHER               <
>     TMP    - TEMPERATURE IN FAHRENHEIT                   <
>     DP     - DEWPOINT IN FAHRENHEIT                      <
>     RH     - RELATIVE HUMIDITY IN PERCENT                <
>     WIND   - DIRECTION AND SPEED IN MPH                  <
>     PRES   - MEAN SEA LEVEL PRESSURE IN INCHES OF HG     <
>     WCI    - WIND CHILL INDEX                            <
>     VSB    - VISIBILITY IN MILES                         <
>     HX     - HEAT INDEX                                  <
>     TC     - TEMPERATURE IN CELSIUS                      <
>     VRB    - VARIABLE WIND DIRECTION                     <
>                                                          <
>>>>>>>>>>>>>>>>>>>>>>>>>>>> KEY <<<<<<<<<<<<<<<<<<<<<<<<<<<




USA.gov is the U.S. government's official web portal to all federal, state and local government web resources and services.